| time (UTC) | temp F | wind direction | speed MPH | gust MPH | rain 1hr in | rain 24hr in | rain mn in | humidity % | barometer mb |
| 20260905182551 | 69 | 267 | 2.0 | 7.0 | 0.00 | 0.00 | 0.00 | 72 | 1015.6 |
| 20260905182052 | 69 | 278 | 1.0 | 6.0 | 0.00 | 0.00 | 0.00 | 72 | 1015.6 |
| 20260905181610 | 68 | 241 | 1.0 | 6.0 | 0.00 | 0.00 | 0.00 | 72 | 1015.6 |
| 20260905181053 | 68 | 0 | 2.0 | 6.0 | 0.00 | 0.00 | 0.00 | 72 | 1015.5 |
| 20260905180554 | 68 | 238 | 2.0 | 7.0 | 0.00 | 0.00 | 0.00 | 74 | 1015.6 |
| 20260905180106 | 68 | 252 | 2.0 | 7.0 | 0.00 | 0.00 | 0.00 | 74 | 1015.6 |
| 20260905175551 | 67 | 192 | 2.0 | 7.0 | 0.00 | 0.00 | 0.00 | 75 | 1015.5 |
| 20260905175054 | 67 | 271 | 2.0 | 7.0 | 0.00 | 0.00 | 0.00 | 75 | 1015.5 |
| 20260905174606 | 67 | 202 | 1.0 | 7.0 | 0.00 | 0.00 | 0.00 | 75 | 1015.6 |
| 20260905174052 | 67 | 234 | 2.0 | 7.0 | 0.00 | 0.00 | 0.00 | 75 | 1015.6 |
| 20260905173552 | 67 | 225 | 1.0 | 5.0 | 0.00 | 0.00 | 0.00 | 76 | 1015.5 |
| 20260905173103 | 67 | 226 | 1.0 | 5.0 | 0.00 | 0.00 | 0.00 | 76 | 1015.5 |
| 20260905172555 | 67 | 200 | 2.0 | 7.0 | 0.00 | 0.00 | 0.00 | 75 | 1015.5 |
| 20260905172052 | 67 | 134 | 3.0 | 7.0 | 0.00 | 0.00 | 0.00 | 75 | 1015.5 |
| 20260905171606 | 67 | 219 | 1.0 | 6.0 | 0.00 | 0.00 | 0.00 | 76 | 1015.4 |
| 20260905171051 | 66 | 266 | 1.0 | 6.0 | 0.00 | 0.00 | 0.00 | 76 | 1015.4 |
| 20260905170552 | 66 | 185 | 2.0 | 6.0 | 0.00 | 0.00 | 0.00 | 77 | 1015.3 |
| 20260905165551 | 66 | 0 | 0.0 | 5.0 | 0.00 | 0.00 | 0.00 | 78 | 1015.2 |
| 20260905165051 | 65 | 244 | 2.0 | 6.0 | 0.00 | 0.00 | 0.00 | 79 | 1015.3 |
| 20260905164608 | 65 | 0 | 2.0 | 6.0 | 0.00 | 0.00 | 0.00 | 78 | 1015.2 |
| 20260905164054 | 65 | 229 | 1.0 | 7.0 | 0.00 | 0.00 | 0.00 | 79 | 1015.2 |
| 20260905163554 | 65 | 121 | 2.0 | 8.0 | 0.00 | 0.00 | 0.00 | 80 | 1015.3 |
| 20260905163106 | 65 | 170 | 2.0 | 8.0 | 0.00 | 0.00 | 0.00 | 80 | 1015.2 |
| 20260905162552 | 65 | 215 | 4.0 | 8.0 | 0.00 | 0.00 | 0.00 | 79 | 1015.2 |
| 20260905162051 | 64 | 113 | 1.0 | 8.0 | 0.00 | 0.00 | 0.00 | 81 | 1015.2 |
| 20260905161602 | 64 | 0 | 1.0 | 8.0 | 0.00 | 0.00 | 0.00 | 82 | 1015.2 |
| 20260905161054 | 63 | 156 | 2.0 | 7.0 | 0.00 | 0.00 | 0.00 | 81 | 1015.2 |
| 20260905160557 | 63 | 138 | 3.0 | 7.0 | 0.00 | 0.00 | 0.00 | 82 | 1015.2 |
| 20260905160124 | 63 | 167 | 2.0 | 7.0 | 0.00 | 0.00 | 0.00 | 82 | 1015.2 |
| 20260905155551 | 62 | 144 | 3.0 | 9.0 | 0.00 | 0.00 | 0.00 | 83 | 1015.2 |
| 20260905155054 | 62 | 131 | 3.0 | 9.0 | 0.00 | 0.00 | 0.00 | 83 | 1015.3 |
| 20260905154607 | 62 | 133 | 3.0 | 8.0 | 0.00 | 0.00 | 0.00 | 83 | 1015.3 |
| 20260905154055 | 62 | 150 | 1.0 | 8.0 | 0.00 | 0.00 | 0.00 | 85 | 1015.3 |
| 20260905153552 | 62 | 171 | 3.0 | 9.0 | 0.00 | 0.00 | 0.00 | 85 | 1015.3 |
| 20260905153112 | 61 | 158 | 3.0 | 9.0 | 0.00 | 0.00 | 0.00 | 86 | 1015.3 |
| 20260905152552 | 61 | 141 | 4.0 | 9.0 | 0.00 | 0.00 | 0.00 | 87 | 1015.3 |
| 20260905152058 | 61 | 150 | 3.0 | 7.0 | 0.00 | 0.00 | 0.00 | 89 | 1015.3 |
| 20260905151604 | 60 | 136 | 3.0 | 8.0 | 0.00 | 0.00 | 0.00 | 89 | 1015.1 |
| 20260905151050 | 60 | 147 | 4.0 | 8.0 | 0.00 | 0.00 | 0.00 | 90 | 1015.2 |
| 20260905150551 | 60 | 143 | 2.0 | 5.0 | 0.00 | 0.00 | 0.00 | 91 | 1015.2 |
| 20260905150105 | 60 | 137 | 1.0 | 7.0 | 0.00 | 0.00 | 0.00 | 92 | 1015.1 |
| 20260905145556 | 59 | 116 | 0.0 | 7.0 | 0.00 | 0.00 | 0.00 | 92 | 1015.2 |
| 20260905145058 | 59 | 154 | 1.0 | 6.0 | 0.00 | 0.00 | 0.00 | 93 | 1015.1 |
| 20260905144606 | 58 | 121 | 2.0 | 6.0 | 0.00 | 0.00 | 0.00 | 93 | 1015.0 |
| 20260905144055 | 58 | 124 | 2.0 | 6.0 | 0.00 | 0.00 | 0.00 | 94 | 1015.0 |
| 20260905143553 | 57 | 130 | 2.0 | 6.0 | 0.00 | 0.00 | 0.00 | 94 | 1015.1 |
| 20260905143109 | 57 | 128 | 1.0 | 4.0 | 0.00 | 0.00 | 0.00 | 94 | 1015.0 |
| 20260905142554 | 56 | 116 | 1.0 | 4.0 | 0.00 | 0.00 | 0.00 | 94 | 1014.9 |
| 20260905142053 | 56 | 128 | 1.0 | 4.0 | 0.00 | 0.00 | 0.00 | 94 | 1015.0 |
| 20260905141603 | 56 | 110 | 1.0 | 3.0 | 0.00 | 0.00 | 0.00 | 94 | 1014.9 |
| 20260905141054 | 56 | 115 | 1.0 | 3.0 | 0.00 | 0.00 | 0.00 | 94 | 1014.9 |
| 20260905140551 | 56 | 118 | 0.0 | 3.0 | 0.00 | 0.00 | 0.00 | 94 | 1014.7 |
| 20260905140110 | 56 | 0 | 0.0 | 3.0 | 0.00 | 0.00 | 0.00 | 94 | 1014.8 |
| 20260905135555 | 56 | 0 | 1.0 | 3.0 | 0.00 | 0.00 | 0.00 | 94 | 1014.6 |
| 20260905135054 | 55 | 109 | 0.0 | 3.0 | 0.00 | 0.00 | 0.00 | 94 | 1014.6 |
| 20260905134607 | 55 | 0 | 0.0 | 3.0 | 0.00 | 0.00 | 0.00 | 94 | 1014.5 |
| 20260905134052 | 55 | 113 | 0.0 | 3.0 | 0.00 | 0.00 | 0.00 | 94 | 1014.5 |
| 20260905133554 | 55 | 0 | 0.0 | 2.0 | 0.00 | 0.00 | 0.00 | 94 | 1014.6 |
| 20260905133107 | 55 | 112 | 0.0 | 1.0 | 0.00 | 0.00 | 0.00 | 94 | 1014.6 |
| 20260905132554 | 55 | 0 | 0.0 | 2.0 | 0.00 | 0.00 | 0.00 | 94 | 1014.5 |
| 20260905132050 | 55 | 0 | 0.0 | 2.0 | 0.00 | 0.00 | 0.00 | 94 | 1014.5 |
| 20260905131611 | 55 | 109 | 0.0 | 3.0 | 0.00 | 0.00 | 0.00 | 94 | 1014.5 |
| 20260905131055 | 55 | 101 | 0.0 | 4.0 | 0.00 | 0.00 | 0.00 | 94 | 1014.5 |
| 20260905130555 | 55 | 111 | 1.0 | 4.0 | 0.00 | 0.00 | 0.00 | 94 | 1014.5 |
| 20260905130117 | 55 | 131 | 1.0 | 4.0 | 0.00 | 0.00 | 0.00 | 94 | 1014.5 |
| 20260905125554 | 55 | 111 | 1.0 | 4.0 | 0.00 | 0.00 | 0.00 | 94 | 1014.5 |
| 20260905125056 | 55 | 117 | 0.0 | 2.0 | 0.00 | 0.00 | 0.00 | 94 | 1014.6 |
| 20260905124605 | 55 | 0 | 0.0 | 1.0 | 0.00 | 0.00 | 0.00 | 93 | 1014.6 |
| 20260905124053 | 55 | 0 | 0.0 | 1.0 | 0.00 | 0.00 | 0.00 | 94 | 1014.6 |
| 20260905123551 | 55 | 0 | 0.0 | 1.0 | 0.00 | 0.00 | 0.00 | 93 | 1014.6 |
| 20260905123110 | 55 | 0 | 0.0 | 1.0 | 0.00 | 0.00 | 0.00 | 93 | 1014.6 |
| 20260905122554 | 55 | 0 | 0.0 | 1.0 | 0.00 | 0.00 | 0.00 | 93 | 1014.6 |
| 20260905122054 | 55 | 0 | 0.0 | 3.0 | 0.00 | 0.00 | 0.00 | 93 | 1014.6 |
| 20260905121605 | 55 | 0 | 0.0 | 3.0 | 0.00 | 0.00 | 0.00 | 93 | 1014.6 |
| 20260905121055 | 55 | 0 | 0.0 | 3.0 | 0.00 | 0.00 | 0.00 | 93 | 1014.5 |
| 20260905120557 | 55 | 0 | 0.0 | 2.0 | 0.00 | 0.00 | 0.00 | 93 | 1014.5 |
| 20260905120114 | 55 | 130 | 0.0 | 2.0 | 0.00 | 0.00 | 0.00 | 93 | 1014.5 |
| 20260905115557 | 55 | 0 | 0.0 | 2.0 | 0.00 | 0.00 | 0.00 | 93 | 1014.5 |
| 20260905115051 | 55 | 0 | 0.0 | 2.0 | 0.00 | 0.00 | 0.00 | 93 | 1014.6 |
| 20260905114605 | 55 | 0 | 0.0 | 0.0 | 0.00 | 0.00 | 0.00 | 93 | 1014.6 |
| 20260905114055 | 55 | 0 | 0.0 | 0.0 | 0.00 | 0.00 | 0.00 | 93 | 1014.6 |
| 20260905113555 | 56 | 0 | 0.0 | 1.0 | 0.00 | 0.00 | 0.00 | 93 | 1014.6 |
| 20260905113106 | 56 | 0 | 0.0 | 1.0 | 0.00 | 0.00 | 0.00 | 93 | 1014.6 |
| 20260905112553 | 56 | 0 | 0.0 | 1.0 | 0.00 | 0.00 | 0.00 | 93 | 1014.6 |
| 20260905112053 | 56 | 0 | 0.0 | 0.0 | 0.00 | 0.00 | 0.00 | 92 | 1014.6 |
| 20260905111614 | 56 | 0 | 0.0 | 0.0 | 0.00 | 0.00 | 0.00 | 93 | 1014.6 |
| 20260905111052 | 56 | 0 | 0.0 | 2.0 | 0.00 | 0.00 | 0.00 | 93 | 1014.6 |
| 20260905110558 | 56 | 0 | 0.0 | 2.0 | 0.00 | 0.00 | 0.00 | 93 | 1014.6 |
| 20260905105556 | 56 | 0 | 0.0 | 2.0 | 0.00 | 0.00 | 0.00 | 92 | 1014.6 |
| 20260905105054 | 56 | 0 | 0.0 | 3.0 | 0.00 | 0.00 | 0.00 | 92 | 1014.6 |
| 20260905104612 | 56 | 0 | 0.0 | 3.0 | 0.00 | 0.00 | 0.00 | 92 | 1014.5 |
| 20260905104058 | 56 | 0 | 0.0 | 3.0 | 0.00 | 0.00 | 0.00 | 92 | 1014.5 |
| 20260905103555 | 56 | 117 | 1.0 | 3.0 | 0.00 | 0.00 | 0.00 | 92 | 1014.6 |
| 20260905103101 | 56 | 0 | 0.0 | 3.0 | 0.00 | 0.00 | 0.00 | 92 | 1014.6 |
| 20260905102551 | 56 | 111 | 1.0 | 4.0 | 0.00 | 0.00 | 0.00 | 92 | 1014.6 |
| 20260905102055 | 56 | 109 | 1.0 | 6.0 | 0.00 | 0.00 | 0.00 | 92 | 1014.7 |
| 20260905101606 | 56 | 0 | 2.0 | 6.0 | 0.00 | 0.00 | 0.00 | 92 | 1014.9 |
| 20260905101055 | 56 | 134 | 1.0 | 3.0 | 0.00 | 0.00 | 0.00 | 91 | 1014.9 |
| 20260905100555 | 56 | 122 | 1.0 | 3.0 | 0.00 | 0.00 | 0.00 | 91 | 1014.9 |
| 20260905100101 | 56 | 113 | 0.0 | 3.0 | 0.00 | 0.00 | 0.00 | 91 | 1014.9 |
| 20260905095555 | 56 | 139 | 0.0 | 2.0 | 0.00 | 0.00 | 0.00 | 91 | 1014.9 |
| 20260905095057 | 56 | 0 | 0.0 | 2.0 | 0.00 | 0.00 | 0.00 | 91 | 1014.7 |
| 20260905094602 | 56 | 134 | 0.0 | 2.0 | 0.00 | 0.00 | 0.00 | 91 | 1014.7 |
| 20260905094055 | 57 | 0 | 0.0 | 3.0 | 0.00 | 0.00 | 0.00 | 91 | 1014.8 |
| 20260905093556 | 56 | 118 | 0.0 | 3.0 | 0.00 | 0.00 | 0.00 | 90 | 1014.7 |
| 20260905093105 | 56 | 0 | 0.0 | 3.0 | 0.00 | 0.00 | 0.00 | 90 | 1014.7 |
| 20260905092557 | 56 | 113 | 1.0 | 3.0 | 0.00 | 0.00 | 0.00 | 90 | 1014.9 |
| 20260905092054 | 56 | 144 | 1.0 | 4.0 | 0.00 | 0.00 | 0.00 | 90 | 1014.9 |
| 20260905091609 | 56 | 112 | 1.0 | 4.0 | 0.00 | 0.00 | 0.00 | 90 | 1015.0 |
| 20260905091057 | 56 | 111 | 1.0 | 3.0 | 0.00 | 0.00 | 0.00 | 90 | 1015.0 |
| 20260905090552 | 56 | 118 | 1.0 | 3.0 | 0.00 | 0.00 | 0.00 | 90 | 1015.0 |
| 20260905090108 | 56 | 136 | 0.0 | 3.0 | 0.00 | 0.00 | 0.00 | 89 | 1015.1 |
| 20260905085555 | 56 | 123 | 0.0 | 3.0 | 0.00 | 0.00 | 0.00 | 89 | 1015.1 |
| 20260905085054 | 56 | 119 | 1.0 | 3.0 | 0.00 | 0.00 | 0.00 | 89 | 1015.1 |
| 20260905084619 | 56 | 124 | 1.0 | 3.0 | 0.00 | 0.00 | 0.00 | 89 | 1015.1 |
| 20260905084052 | 56 | 123 | 1.0 | 3.0 | 0.00 | 0.00 | 0.00 | 89 | 1015.2 |
| 20260905083556 | 56 | 143 | 1.0 | 4.0 | 0.00 | 0.00 | 0.00 | 90 | 1015.1 |
| 20260905083103 | 56 | 132 | 1.0 | 4.0 | 0.00 | 0.00 | 0.00 | 90 | 1015.1 |
| 20260905082554 | 56 | 127 | 1.0 | 4.0 | 0.00 | 0.00 | 0.00 | 90 | 1015.1 |
| 20260905082054 | 56 | 136 | 1.0 | 3.0 | 0.00 | 0.00 | 0.00 | 89 | 1015.2 |
| 20260905081603 | 56 | 132 | 1.0 | 4.0 | 0.00 | 0.00 | 0.00 | 89 | 1015.2 |
| 20260905081055 | 56 | 141 | 1.0 | 4.0 | 0.00 | 0.00 | 0.00 | 89 | 1015.1 |
| 20260905080555 | 56 | 0 | 0.0 | 0.0 | 0.00 | 0.00 | 0.00 | 89 | 1015.0 |
| 20260905080101 | 56 | 0 | 0.0 | 0.0 | 0.00 | 0.00 | 0.00 | 89 | 1015.1 |
| 20260905075557 | 56 | 0 | 0.0 | 0.0 | 0.00 | 0.00 | 0.00 | 89 | 1015.1 |
| 20260905075054 | 56 | 0 | 0.0 | 0.0 | 0.00 | 0.00 | 0.00 | 89 | 1015.1 |
| 20260905074606 | 56 | 0 | 0.0 | 0.0 | 0.00 | 0.00 | 0.00 | 89 | 1015.1 |
| 20260905074052 | 56 | 0 | 0.0 | 0.0 | 0.00 | 0.00 | 0.00 | 88 | 1015.1 |
| 20260905073554 | 56 | 0 | 0.0 | 0.0 | 0.00 | 0.00 | 0.00 | 88 | 1015.0 |
| 20260905073108 | 56 | 0 | 0.0 | 0.0 | 0.00 | 0.00 | 0.00 | 88 | 1015.0 |
| 20260905072553 | 56 | 0 | 0.0 | 0.0 | 0.00 | 0.00 | 0.00 | 88 | 1015.0 |
| 20260905072051 | 56 | 0 | 0.0 | 0.0 | 0.00 | 0.00 | 0.00 | 88 | 1014.9 |
| 20260905071603 | 56 | 0 | 0.0 | 0.0 | 0.00 | 0.00 | 0.00 | 88 | 1014.9 |
| 20260905071058 | 57 | 0 | 0.0 | 0.0 | 0.00 | 0.00 | 0.00 | 87 | 1015.0 |
| 20260905070554 | 57 | 0 | 0.0 | 0.0 | 0.00 | 0.00 | 0.00 | 87 | 1015.0 |
| 20260905070107 | 57 | 0 | 0.0 | 0.0 | 0.00 | 0.00 | 0.00 | 87 | 1015.0 |
| 20260905065551 | 57 | 0 | 0.0 | 0.0 | 0.00 | 0.01 | 0.00 | 87 | 1014.9 |
| 20260905065055 | 57 | 0 | 0.0 | 0.0 | 0.00 | 0.01 | 0.00 | 87 | 1014.9 |
| 20260905064609 | 57 | 0 | 0.0 | 0.0 | 0.00 | 0.01 | 0.00 | 87 | 1014.9 |
| 20260905064057 | 57 | 0 | 0.0 | 0.0 | 0.00 | 0.01 | 0.00 | 87 | 1015.0 |
| 20260905063557 | 57 | 0 | 0.0 | 0.0 | 0.00 | 0.01 | 0.00 | 87 | 1015.0 |
| 20260905063106 | 58 | 0 | 0.0 | 0.0 | 0.00 | 0.01 | 0.00 | 86 | 1015.0 |
| 20260905062558 | 58 | 0 | 0.0 | 0.0 | 0.00 | 0.01 | 0.00 | 86 | 1014.9 |
| 20260905062057 | 58 | 0 | 0.0 | 0.0 | 0.00 | 0.01 | 0.00 | 85 | 1014.9 |
| 20260905061611 | 58 | 0 | 0.0 | 0.0 | 0.00 | 0.01 | 0.00 | 85 | 1015.0 |
| 20260905061054 | 59 | 0 | 0.0 | 0.0 | 0.00 | 0.01 | 0.00 | 84 | 1015.0 |
| 20260905060556 | 59 | 0 | 0.0 | 0.0 | 0.00 | 0.01 | 0.00 | 84 | 1015.1 |
| 20260905060104 | 59 | 0 | 0.0 | 0.0 | 0.00 | 0.01 | 0.00 | 84 | 1015.1 |
| 20260905055551 | 60 | 0 | 0.0 | 0.0 | 0.00 | 0.01 | 0.00 | 84 | 1015.1 |
| 20260905055055 | 60 | 0 | 0.0 | 0.0 | 0.00 | 0.01 | 0.00 | 83 | 1015.1 |
| 20260905054603 | 60 | 0 | 0.0 | 3.0 | 0.00 | 0.01 | 0.00 | 83 | 1015.1 |
| 20260905054055 | 60 | 0 | 0.0 | 3.0 | 0.00 | 0.01 | 0.00 | 83 | 1015.1 |
| 20260905053555 | 60 | 342 | 0.0 | 2.0 | 0.00 | 0.01 | 0.00 | 83 | 1015.1 |
| 20260905053142 | 60 | 0 | 0.0 | 3.0 | 0.00 | 0.01 | 0.00 | 83 | 1015.1 |
| 20260905052557 | 61 | 0 | 0.0 | 5.0 | 0.00 | 0.01 | 0.00 | 82 | 1015.2 |
| 20260905052055 | 61 | 360 | 1.0 | 5.0 | 0.00 | 0.01 | 0.00 | 82 | 1015.2 |
| 20260905051604 | 61 | 0 | 2.0 | 5.0 | 0.00 | 0.01 | 0.00 | 82 | 1015.1 |
| 20260905051054 | 61 | 302 | 2.0 | 5.0 | 0.00 | 0.01 | 0.00 | 82 | 1015.2 |
| 20260905050555 | 61 | 315 | 0.0 | 7.0 | 0.00 | 0.01 | 0.00 | 81 | 1015.2 |
| 20260905050101 | 61 | 292 | 1.0 | 7.0 | 0.00 | 0.01 | 0.00 | 81 | 1015.3 |
| 20260905045557 | 61 | 294 | 1.0 | 4.0 | 0.00 | 0.04 | 0.00 | 80 | 1015.2 |
| 20260905045053 | 61 | 0 | 2.0 | 4.0 | 0.00 | 0.04 | 0.00 | 80 | 1015.3 |
| 20260905044604 | 61 | 323 | 0.0 | 5.0 | 0.00 | 0.04 | 0.00 | 79 | 1015.2 |
| 20260905044056 | 61 | 0 | 0.0 | 7.0 | 0.00 | 0.04 | 0.00 | 79 | 1015.2 |
| 20260905043555 | 62 | 289 | 1.0 | 7.0 | 0.00 | 0.04 | 0.00 | 79 | 1015.2 |
| 20260905043111 | 62 | 310 | 1.0 | 7.0 | 0.00 | 0.04 | 0.00 | 78 | 1015.2 |
| 20260905042554 | 62 | 311 | 1.0 | 9.0 | 0.00 | 0.04 | 0.00 | 78 | 1015.1 |
| 20260905042057 | 62 | 300 | 2.0 | 9.0 | 0.00 | 0.04 | 0.00 | 78 | 1015.0 |
| 20260905041608 | 62 | 283 | 3.0 | 9.0 | 0.00 | 0.04 | 0.00 | 78 | 1015.0 |
| 20260905041054 | 62 | 333 | 1.0 | 10.0 | 0.00 | 0.04 | 0.00 | 78 | 1015.0 |
| 20260905040558 | 62 | 324 | 3.0 | 10.0 | 0.00 | 0.04 | 0.00 | 78 | 1015.0 |
| 20260905040106 | 62 | 290 | 4.0 | 10.0 | 0.00 | 0.04 | 0.00 | 77 | 1015.0 |
| 20260905035554 | 62 | 299 | 6.0 | 10.0 | 0.00 | 0.07 | 0.00 | 77 | 1014.9 |
| 20260905035057 | 62 | 309 | 2.0 | 8.0 | 0.00 | 0.07 | 0.00 | 77 | 1014.9 |
| 20260905034605 | 62 | 327 | 3.0 | 10.0 | 0.00 | 0.07 | 0.00 | 77 | 1014.7 |
| 20260905034054 | 62 | 0 | 5.0 | 10.0 | 0.00 | 0.07 | 0.00 | 77 | 1014.8 |
| 20260905033555 | 63 | 288 | 3.0 | 6.0 | 0.00 | 0.07 | 0.00 | 79 | 1014.7 |
| 20260905033115 | 62 | 329 | 2.0 | 7.0 | 0.00 | 0.07 | 0.00 | 79 | 1014.6 |
| 20260905032552 | 62 | 298 | 3.0 | 8.0 | 0.00 | 0.07 | 0.00 | 80 | 1014.6 |
| 20260905032057 | 62 | 347 | 3.0 | 8.0 | 0.00 | 0.07 | 0.00 | 81 | 1014.6 |
| 20260905031614 | 62 | 298 | 2.0 | 8.0 | 0.00 | 0.07 | 0.00 | 85 | 1014.6 |
| 20260905031055 | 62 | 275 | 1.0 | 3.0 | 0.00 | 0.07 | 0.00 | 86 | 1014.6 |
| 20260905030555 | 62 | 0 | 0.0 | 5.0 | 0.00 | 0.07 | 0.00 | 87 | 1014.5 |
| 20260905030109 | 62 | 289 | 0.0 | 5.0 | 0.00 | 0.07 | 0.00 | 87 | 1014.5 |
| 20260905025554 | 62 | 0 | 0.0 | 5.0 | 0.00 | 0.07 | 0.00 | 87 | 1014.5 |
| 20260905025055 | 62 | 0 | 0.0 | 5.0 | 0.00 | 0.07 | 0.00 | 87 | 1014.4 |
| 20260905024623 | 62 | 311 | 0.0 | 4.0 | 0.00 | 0.07 | 0.00 | 87 | 1014.5 |
| 20260905024054 | 63 | 0 | 0.0 | 4.0 | 0.00 | 0.07 | 0.00 | 87 | 1014.4 |
| 20260905023555 | 63 | 44 | 0.0 | 4.0 | 0.00 | 0.07 | 0.00 | 87 | 1014.5 |
| 20260905023124 | 63 | 0 | 0.0 | 4.0 | 0.00 | 0.07 | 0.00 | 87 | 1014.5 |
| 20260905022551 | 63 | 0 | 1.0 | 7.0 | 0.00 | 0.07 | 0.00 | 87 | 1014.4 |
| 20260905022055 | 63 | 298 | 1.0 | 7.0 | 0.00 | 0.07 | 0.00 | 87 | 1014.4 |
| 20260905021614 | 63 | 229 | 1.0 | 7.0 | 0.00 | 0.07 | 0.00 | 86 | 1014.4 |
| 20260905021055 | 63 | 250 | 0.0 | 7.0 | 0.00 | 0.07 | 0.00 | 86 | 1014.4 |
| 20260905020555 | 63 | 0 | 1.0 | 5.0 | 0.00 | 0.07 | 0.00 | 86 | 1014.4 |
| 20260905020111 | 63 | 0 | 0.0 | 6.0 | 0.00 | 0.07 | 0.00 | 86 | 1014.5 |
| 20260905015552 | 63 | 0 | 1.0 | 9.0 | 0.00 | 0.07 | 0.00 | 86 | 1014.4 |
| 20260905015055 | 63 | 221 | 1.0 | 9.0 | 0.00 | 0.07 | 0.00 | 86 | 1014.5 |
| 20260905014616 | 63 | 0 | 3.0 | 9.0 | 0.00 | 0.07 | 0.00 | 86 | 1014.5 |
| 20260905014054 | 64 | 0 | 1.0 | 8.0 | 0.00 | 0.07 | 0.00 | 86 | 1014.5 |
| 20260905013553 | 64 | 271 | 2.0 | 13.0 | 0.00 | 0.07 | 0.00 | 86 | 1014.6 |
| 20260905013104 | 64 | 279 | 0.0 | 13.0 | 0.00 | 0.07 | 0.00 | 85 | 1014.6 |
| 20260905012555 | 64 | 198 | 3.0 | 9.0 | 0.00 | 0.07 | 0.00 | 85 | 1014.4 |
| 20260905012056 | 64 | 284 | 2.0 | 9.0 | 0.00 | 0.07 | 0.00 | 85 | 1014.5 |
| 20260905011622 | 64 | 198 | 1.0 | 10.0 | 0.00 | 0.07 | 0.00 | 85 | 1014.4 |
| 20260905011055 | 64 | 251 | 3.0 | 10.0 | 0.00 | 0.07 | 0.00 | 84 | 1014.4 |
| 20260905010554 | 64 | 315 | 4.0 | 12.0 | 0.00 | 0.07 | 0.00 | 83 | 1014.4 |
| 20260905005554 | 65 | 259 | 3.0 | 11.0 | 0.00 | 0.07 | 0.00 | 82 | 1014.4 |
| 20260905005054 | 65 | 237 | 3.0 | 11.0 | 0.00 | 0.07 | 0.00 | 81 | 1014.4 |
| 20260905004606 | 66 | 258 | 2.0 | 10.0 | 0.00 | 0.07 | 0.00 | 81 | 1014.3 |
| 20260905004054 | 66 | 0 | 3.0 | 10.0 | 0.00 | 0.07 | 0.00 | 80 | 1014.5 |
| 20260905003552 | 66 | 289 | 2.0 | 12.0 | 0.00 | 0.07 | 0.00 | 81 | 1014.3 |
| 20260905003102 | 66 | 296 | 4.0 | 12.0 | 0.00 | 0.07 | 0.00 | 81 | 1014.4 |
| 20260905002558 | 66 | 267 | 3.0 | 12.0 | 0.00 | 0.07 | 0.00 | 81 | 1014.3 |
| 20260905002056 | 66 | 240 | 4.0 | 12.0 | 0.00 | 0.07 | 0.00 | 81 | 1014.3 |
| 20260905001606 | 66 | 259 | 3.0 | 10.0 | 0.00 | 0.07 | 0.00 | 81 | 1014.4 |
| 20260905001054 | 66 | 314 | 3.0 | 11.0 | 0.00 | 0.07 | 0.00 | 81 | 1014.4 |
| 20260905000554 | 66 | 246 | 3.0 | 11.0 | 0.00 | 0.07 | 0.00 | 81 | 1014.4 |
| 20260905000109 | 66 | 258 | 2.0 | 14.0 | 0.00 | 0.07 | 0.00 | 81 | 1014.4 |
| 20260904235557 | 66 | 0 | 5.0 | 14.0 | 0.00 | 0.07 | 0.00 | 81 | 1014.4 |
| 20260904235055 | 66 | 217 | 4.0 | 14.0 | 0.00 | 0.07 | 0.00 | 80 | 1014.5 |
| 20260904234607 | 67 | 253 | 5.0 | 14.0 | 0.00 | 0.07 | 0.00 | 79 | 1014.5 |
| 20260904234053 | 67 | 285 | 4.0 | 14.0 | 0.00 | 0.07 | 0.00 | 78 | 1014.5 |
| 20260904233556 | 67 | 269 | 4.0 | 14.0 | 0.00 | 0.07 | 0.00 | 78 | 1014.5 |
| 20260904233103 | 67 | 355 | 5.0 | 12.0 | 0.00 | 0.07 | 0.00 | 78 | 1014.6 |
| 20260904232551 | 67 | 256 | 4.0 | 11.0 | 0.00 | 0.07 | 0.00 | 78 | 1014.6 |
| 20260904232054 | 67 | 243 | 5.0 | 13.0 | 0.00 | 0.07 | 0.00 | 77 | 1014.6 |
| 20260904231613 | 67 | 194 | 6.0 | 13.0 | 0.00 | 0.07 | 0.00 | 77 | 1014.7 |
| 20260904231054 | 67 | 258 | 3.0 | 15.0 | 0.00 | 0.07 | 0.00 | 78 | 1014.7 |
| 20260904230557 | 67 | 234 | 4.0 | 15.0 | 0.00 | 0.07 | 0.00 | 78 | 1014.7 |
| 20260904230109 | 67 | 249 | 6.0 | 15.0 | 0.00 | 0.07 | 0.00 | 76 | 1014.7 |
| 20260904225556 | 67 | 202 | 4.0 | 16.0 | 0.00 | 0.07 | 0.00 | 76 | 1014.8 |
| 20260904225056 | 67 | 250 | 4.0 | 16.0 | 0.00 | 0.07 | 0.00 | 78 | 1014.9 |
| 20260904224614 | 67 | 284 | 4.0 | 14.0 | 0.00 | 0.07 | 0.00 | 77 | 1014.7 |
| 20260904224051 | 67 | 255 | 6.0 | 13.0 | 0.00 | 0.07 | 0.00 | 77 | 1015.0 |
| 20260904223555 | 68 | 244 | 2.0 | 11.0 | 0.00 | 0.07 | 0.00 | 76 | 1015.0 |
| 20260904223104 | 68 | 288 | 4.0 | 12.0 | 0.00 | 0.07 | 0.00 | 77 | 1015.0 |
| 20260904222554 | 67 | 188 | 4.0 | 12.0 | 0.00 | 0.07 | 0.00 | 78 | 1015.1 |
| 20260904222055 | 67 | 316 | 5.0 | 13.0 | 0.00 | 0.07 | 0.00 | 77 | 1015.0 |
| 20260904221607 | 68 | 233 | 4.0 | 13.0 | 0.00 | 0.07 | 0.00 | 77 | 1015.0 |
| 20260904221054 | 68 | 246 | 3.0 | 11.0 | 0.00 | 0.07 | 0.00 | 76 | 1015.0 |
| 20260904220554 | 68 | 245 | 3.0 | 14.0 | 0.00 | 0.07 | 0.00 | 77 | 1015.0 |
| 20260904220113 | 68 | 263 | 2.0 | 15.0 | 0.00 | 0.07 | 0.00 | 78 | 1015.0 |
| 20260904215554 | 67 | 313 | 4.0 | 15.0 | 0.00 | 0.07 | 0.00 | 77 | 1015.0 |
| 20260904215053 | 67 | 248 | 5.0 | 15.0 | 0.00 | 0.07 | 0.00 | 78 | 1015.0 |
| 20260904214609 | 67 | 232 | 5.0 | 14.0 | 0.00 | 0.07 | 0.00 | 77 | 1015.0 |
| 20260904214056 | 67 | 293 | 3.0 | 14.0 | 0.00 | 0.07 | 0.00 | 78 | 1015.1 |
| 20260904213554 | 67 | 0 | 4.0 | 12.0 | 0.00 | 0.07 | 0.00 | 79 | 1015.0 |
| 20260904213104 | 66 | 263 | 5.0 | 12.0 | 0.00 | 0.07 | 0.00 | 79 | 1015.1 |
| 20260904212555 | 66 | 284 | 5.0 | 12.0 | 0.00 | 0.07 | 0.00 | 79 | 1015.0 |
| 20260904212054 | 66 | 227 | 4.0 | 16.0 | 0.00 | 0.07 | 0.00 | 80 | 1015.1 |
| 20260904211604 | 66 | 244 | 5.0 | 16.0 | 0.00 | 0.07 | 0.00 | 79 | 1015.0 |
| 20260904211054 | 67 | 277 | 6.0 | 12.0 | 0.00 | 0.07 | 0.00 | 78 | 1015.1 |
| 20260904210554 | 67 | 178 | 2.0 | 11.0 | 0.00 | 0.07 | 0.00 | 80 | 1015.0 |
| 20260904210106 | 67 | 279 | 3.0 | 11.0 | 0.00 | 0.07 | 0.00 | 80 | 1015.1 |
| 20260904205554 | 67 | 227 | 4.0 | 11.0 | 0.00 | 0.07 | 0.00 | 80 | 1015.0 |
| 20260904205054 | 66 | 262 | 4.0 | 11.0 | 0.00 | 0.07 | 0.00 | 80 | 1015.0 |
| 20260904204604 | 67 | 286 | 4.0 | 11.0 | 0.00 | 0.07 | 0.00 | 80 | 1014.9 |
| 20260904204055 | 67 | 211 | 3.0 | 9.0 | 0.00 | 0.07 | 0.00 | 79 | 1015.0 |
| 20260904203554 | 67 | 240 | 3.0 | 9.0 | 0.00 | 0.07 | 0.00 | 79 | 1015.0 |
| 20260904203104 | 67 | 277 | 2.0 | 10.0 | 0.00 | 0.07 | 0.00 | 79 | 1015.0 |
| 20260904202554 | 67 | 225 | 3.0 | 12.0 | 0.00 | 0.07 | 0.00 | 79 | 1015.0 |
| 20260904202051 | 67 | 198 | 1.0 | 14.0 | 0.00 | 0.07 | 0.00 | 80 | 1014.9 |
| 20260904201631 | 67 | 238 | 4.0 | 14.0 | 0.00 | 0.07 | 0.00 | 80 | 1014.9 |
| 20260904201054 | 67 | 273 | 2.0 | 12.0 | 0.00 | 0.07 | 0.00 | 79 | 1014.9 |
| 20260904200553 | 67 | 275 | 3.0 | 12.0 | 0.00 | 0.07 | 0.00 | 78 | 1014.9 |
| 20260904200122 | 67 | 209 | 3.0 | 9.0 | 0.00 | 0.07 | 0.00 | 79 | 1014.9 |
| 20260904195555 | 67 | 205 | 2.0 | 9.0 | 0.00 | 0.07 | 0.00 | 77 | 1014.8 |
| 20260904195054 | 67 | 231 | 2.0 | 8.0 | 0.00 | 0.07 | 0.00 | 78 | 1014.8 |
| 20260904194610 | 67 | 348 | 3.0 | 8.0 | 0.00 | 0.07 | 0.00 | 77 | 1014.9 |
| 20260904194055 | 67 | 215 | 1.0 | 8.0 | 0.00 | 0.07 | 0.00 | 78 | 1014.9 |
| 20260904193555 | 67 | 266 | 1.0 | 8.0 | 0.00 | 0.07 | 0.00 | 76 | 1015.0 |
| 20260904193111 | 67 | 0 | 2.0 | 8.0 | 0.00 | 0.07 | 0.00 | 76 | 1015.0 |
| 20260904192554 | 67 | 250 | 2.0 | 8.0 | 0.00 | 0.07 | 0.00 | 77 | 1015.1 |
| 20260904192054 | 66 | 257 | 1.0 | 7.0 | 0.00 | 0.07 | 0.00 | 78 | 1015.1 |
| 20260904191606 | 66 | 238 | 2.0 | 7.0 | 0.00 | 0.07 | 0.00 | 78 | 1015.1 |
| 20260904191054 | 66 | 256 | 1.0 | 6.0 | 0.00 | 0.07 | 0.00 | 79 | 1015.1 |
| 20260904190556 | 66 | 309 | 1.0 | 8.0 | 0.00 | 0.07 | 0.00 | 80 | 1015.1 |
| 20260904185557 | 65 | 254 | 3.0 | 8.0 | 0.00 | 0.07 | 0.00 | 81 | 1015.2 |
| 20260904185056 | 65 | 302 | 3.0 | 8.0 | 0.00 | 0.07 | 0.00 | 80 | 1015.3 |
| 20260904184608 | 65 | 265 | 2.0 | 6.0 | 0.00 | 0.07 | 0.00 | 81 | 1015.2 |
| 20260904184054 | 65 | 248 | 1.0 | 8.0 | 0.00 | 0.07 | 0.00 | 82 | 1015.2 |
| 20260904183559 | 65 | 257 | 2.0 | 8.0 | 0.00 | 0.07 | 0.00 | 82 | 1015.3 |
| 20260904183102 | 65 | 248 | 2.0 | 9.0 | 0.00 | 0.07 | 0.00 | 83 | 1015.3 |